sat.trackr.live / text

‹ back to catalog

STARLINK-31445

NORAD 59312 · 2024-056S

PAYLOAD ACTIVE UNKNOWN

§ Identity

Operator
Country
US
Launch date
2024-03-24
Launch site
AFETR
Launch vehicle
Mass (kg)
RCS (m²)

Purposes: comms

External: N2YO · Heavens-Above · Gunter

§ Orbital elements

Epoch: 2026-09-20T05:20:24.924480Z

Period
94.27 min
Inclination
43.0010°
Eccentricity
0.0001458
Mean motion
15.27576856 rev/d
Perigee alt
482.1 km
Apogee alt
484.1 km
Semi-major
6,861.2 km
B*
3.8645e-5
RAAN
219.1796°
Arg perigee
262.4480°
Mean anomaly
97.6206°
Rev number
14,082

§ Raw data

STARLINK-314451 59312U 24056S   26263.22251070  .00000801  00000+0  38645-4 0  99932 59312  43.0010 219.1796 0001458 262.4480  97.6206 15.27576856140826

JSON: /api/v1/satellites/59312 · /tle

For live sub-satellite position, see the globe view (requires WebGL).

§ Visibility from observer

Set your observer location to see the next 7 days of passes ≥ 10°. The values pass through the URL so the page stays shareable.

No JS? Fill the form by hand. The geolocation button needs JavaScript.